| time (UTC) | temp C | wind direction | speed KPH | gust KPH | rain 1hr cm | rain 24hr cm | rain mn cm | humidity % | barometer mb |
| 20260504070303 | 10 | 219 | 4.8 | 8.0 | 0.00 | 0.00 | 0.00 | 60 | 1013.9 |
| 20260504050304 | 9 | 251 | 3.2 | 11.3 | 0.00 | 0.00 | 0.00 | 57 | 1013.9 |
| 20260504045804 | 10 | 221 | 3.2 | 8.0 | 0.00 | 0.00 | 0.00 | 57 | 1014.0 |
| 20260504045304 | 10 | 208 | 3.2 | 4.8 | 0.00 | 0.00 | 0.00 | 56 | 1014.0 |
| 20260504044803 | 10 | 208 | 3.2 | 4.8 | 0.00 | 0.00 | 0.00 | 55 | 1013.9 |
| 20260504044304 | 10 | 220 | 4.8 | 12.9 | 0.00 | 0.00 | 0.00 | 54 | 1014.0 |
| 20260504043804 | 10 | 241 | 4.8 | 11.3 | 0.00 | 0.00 | 0.00 | 54 | 1014.0 |
| 20260504043304 | 10 | 238 | 4.8 | 9.7 | 0.00 | 0.00 | 0.00 | 54 | 1013.9 |
| 20260504042803 | 10 | 242 | 4.8 | 8.0 | 0.00 | 0.00 | 0.00 | 55 | 1013.9 |
| 20260504042304 | 10 | 196 | 3.2 | 9.7 | 0.00 | 0.00 | 0.00 | 54 | 1014.0 |
| 20260504041304 | 10 | 257 | 4.8 | 4.8 | 0.00 | 0.00 | 0.00 | 53 | 1013.9 |
| 20260504040804 | 10 | 260 | 3.2 | 8.0 | 0.00 | 0.00 | 0.00 | 54 | 1013.9 |
| 20260504040304 | 10 | 208 | 4.8 | 14.5 | 0.00 | 0.00 | 0.00 | 53 | 1013.9 |
| 20260504035803 | 9 | 253 | 6.4 | 11.3 | 0.00 | 0.00 | 0.00 | 53 | 1013.8 |
| 20260504034803 | 9 | 251 | 6.4 | 11.3 | 0.00 | 0.00 | 0.00 | 55 | 1013.8 |
| 20260504034303 | 9 | 233 | 3.2 | 11.3 | 0.00 | 0.00 | 0.00 | 55 | 1013.7 |
| 20260504033803 | 10 | 223 | 3.2 | 4.8 | 0.00 | 0.00 | 0.00 | 56 | 1013.7 |
| 20260504033303 | 10 | 190 | 3.2 | 4.8 | 0.00 | 0.00 | 0.00 | 54 | 1013.6 |
| 20260504032803 | 10 | 230 | 1.6 | 4.8 | 0.00 | 0.00 | 0.00 | 53 | 1013.5 |
| 20260504032304 | 10 | 265 | 1.6 | 4.8 | 0.00 | 0.00 | 0.00 | 52 | 1013.4 |
| 20260504031803 | 10 | 262 | 3.2 | 4.8 | 0.00 | 0.00 | 0.00 | 52 | 1013.4 |
| 20260504030803 | 10 | 247 | 1.6 | 4.8 | 0.00 | 0.00 | 0.00 | 51 | 1013.4 |
| 20260504030303 | 10 | 256 | 3.2 | 4.8 | 0.00 | 0.00 | 0.00 | 51 | 1013.4 |
| 20260504025803 | 10 | 242 | 3.2 | 8.0 | 0.00 | 0.00 | 0.00 | 51 | 1013.4 |
| 20260504025304 | 10 | 238 | 3.2 | 4.8 | 0.00 | 0.00 | 0.00 | 50 | 1013.5 |
| 20260504024803 | 10 | 239 | 1.6 | 4.8 | 0.00 | 0.00 | 0.00 | 50 | 1013.4 |
| 20260504024303 | 10 | 244 | 3.2 | 4.8 | 0.00 | 0.00 | 0.00 | 49 | 1013.4 |
| 20260504023803 | 10 | 233 | 4.8 | 8.0 | 0.00 | 0.00 | 0.00 | 49 | 1013.4 |
| 20260504022803 | 10 | 236 | 3.2 | 8.0 | 0.00 | 0.00 | 0.00 | 52 | 1013.4 |
| 20260504022304 | 10 | 219 | 3.2 | 4.8 | 0.00 | 0.00 | 0.00 | 52 | 1013.4 |
| 20260504021803 | 10 | 224 | 3.2 | 4.8 | 0.00 | 0.00 | 0.00 | 51 | 1013.4 |
| 20260504021304 | 11 | 229 | 3.2 | 4.8 | 0.00 | 0.00 | 0.00 | 51 | 1013.3 |
| 20260504020803 | 11 | 234 | 3.2 | 4.8 | 0.00 | 0.00 | 0.00 | 50 | 1013.2 |
| 20260504015804 | 11 | 246 | 3.2 | 4.8 | 0.00 | 0.00 | 0.00 | 50 | 1013.3 |
| 20260504015305 | 11 | 246 | 1.6 | 4.8 | 0.00 | 0.00 | 0.00 | 49 | 1013.3 |
| 20260504014803 | 11 | 246 | 1.6 | 3.2 | 0.00 | 0.00 | 0.00 | 47 | 1013.3 |
| 20260504014303 | 11 | 246 | 1.6 | 3.2 | 0.00 | 0.00 | 0.00 | 46 | 1013.2 |
| 20260504013304 | 11 | 236 | 3.2 | 8.0 | 0.00 | 0.00 | 0.00 | 44 | 1013.2 |
| 20260504012304 | 12 | 237 | 3.2 | 4.8 | 0.00 | 0.00 | 0.00 | 44 | 1013.1 |
| 20260504011804 | 12 | 245 | 3.2 | 4.8 | 0.00 | 0.00 | 0.00 | 44 | 1013.1 |
| 20260504011304 | 12 | 245 | 3.2 | 4.8 | 0.00 | 0.00 | 0.00 | 43 | 1013.1 |
| 20260504010804 | 12 | 245 | 3.2 | 4.8 | 0.00 | 0.00 | 0.00 | 42 | 1013.0 |
| 20260504010304 | 12 | 245 | 3.2 | 4.8 | 0.00 | 0.00 | 0.00 | 42 | 1013.0 |
| 20260504005803 | 13 | 245 | 3.2 | 4.8 | 0.00 | 0.00 | 0.00 | 42 | 1013.0 |
| 20260504005306 | 13 | 245 | 3.2 | 4.8 | 0.00 | 0.00 | 0.00 | 41 | 1012.9 |
| 20260504004803 | 13 | 247 | 3.2 | 4.8 | 0.00 | 0.00 | 0.00 | 41 | 1012.8 |
| 20260504003803 | 13 | 264 | 1.6 | 4.8 | 0.00 | 0.00 | 0.00 | 40 | 1012.7 |
| 20260504003304 | 13 | 254 | 1.6 | 4.8 | 0.00 | 0.00 | 0.00 | 39 | 1012.7 |
| 20260504002803 | 13 | 243 | 3.2 | 4.8 | 0.00 | 0.00 | 0.00 | 38 | 1012.7 |
| 20260504002304 | 13 | 242 | 3.2 | 4.8 | 0.00 | 0.00 | 0.00 | 37 | 1012.6 |
| 20260504001805 | 14 | 247 | 1.6 | 4.8 | 0.00 | 0.00 | 0.00 | 37 | 1012.6 |
| 20260504001304 | 14 | 238 | 1.6 | 4.8 | 0.00 | 0.00 | 0.00 | 37 | 1012.6 |
| 20260504000803 | 14 | 283 | 1.6 | 3.2 | 0.00 | 0.00 | 0.00 | 37 | 1012.5 |
| 20260503235304 | 15 | 258 | 1.6 | 4.8 | 0.00 | 0.00 | 0.00 | 35 | 1012.4 |
| 20260503234803 | 15 | 287 | 3.2 | 9.7 | 0.00 | 0.00 | 0.00 | 36 | 1012.4 |
| 20260503234303 | 15 | 302 | 3.2 | 9.7 | 0.00 | 0.00 | 0.00 | 35 | 1012.4 |
| 20260503233804 | 15 | 289 | 3.2 | 9.7 | 0.00 | 0.00 | 0.00 | 35 | 1012.3 |
| 20260503233303 | 15 | 252 | 3.2 | 8.0 | 0.00 | 0.00 | 0.00 | 35 | 1012.2 |
| 20260503232804 | 15 | 297 | 3.2 | 4.8 | 0.00 | 0.00 | 0.00 | 34 | 1012.2 |
| 20260503232305 | 15 | 275 | 1.6 | 4.8 | 0.00 | 0.00 | 0.00 | 34 | 1012.1 |
| 20260503231804 | 15 | 294 | 3.2 | 4.8 | 0.00 | 0.00 | 0.00 | 34 | 1012.0 |
| 20260503231304 | 15 | 275 | 1.6 | 11.3 | 0.00 | 0.00 | 0.00 | 33 | 1012.1 |
| 20260503230803 | 16 | 294 | 9.7 | 12.9 | 0.00 | 0.00 | 0.00 | 33 | 1012.1 |
| 20260503230303 | 16 | 292 | 4.8 | 11.3 | 0.00 | 0.00 | 0.00 | 33 | 1012.0 |
| 20260503225304 | 16 | 330 | 8.0 | 16.1 | 0.00 | 0.00 | 0.00 | 32 | 1012.0 |
| 20260503224804 | 16 | 348 | 3.2 | 4.8 | 0.00 | 0.00 | 0.00 | 32 | 1012.1 |
| 20260503224303 | 16 | 304 | 8.0 | 20.9 | 0.00 | 0.00 | 0.00 | 31 | 1012.1 |
| 20260503223803 | 16 | 300 | 9.7 | 19.3 | 0.00 | 0.00 | 0.00 | 31 | 1012.2 |
| 20260503223304 | 16 | 300 | 9.7 | 20.9 | 0.00 | 0.00 | 0.00 | 31 | 1012.1 |
| 20260503222803 | 17 | 299 | 9.7 | 16.1 | 0.00 | 0.00 | 0.00 | 30 | 1012.1 |
| 20260503222304 | 17 | 296 | 11.3 | 22.5 | 0.00 | 0.00 | 0.00 | 30 | 1012.1 |
| 20260503221804 | 17 | 256 | 6.4 | 19.3 | 0.00 | 0.00 | 0.00 | 30 | 1012.1 |
| 20260503221303 | 17 | 313 | 6.4 | 14.5 | 0.00 | 0.00 | 0.00 | 30 | 1012.1 |
| 20260503220803 | 17 | 207 | 8.0 | 16.1 | 0.00 | 0.00 | 0.00 | 29 | 1012.1 |
| 20260503220304 | 17 | 324 | 6.4 | 20.9 | 0.00 | 0.00 | 0.00 | 30 | 1012.2 |
| 20260503215803 | 17 | 272 | 4.8 | 12.9 | 0.00 | 0.00 | 0.00 | 29 | 1012.2 |
| 20260503215304 | 17 | 254 | 9.7 | 20.9 | 0.00 | 0.00 | 0.00 | 29 | 1012.3 |
| 20260503214303 | 17 | 273 | 9.7 | 16.1 | 0.00 | 0.00 | 0.00 | 29 | 1012.1 |
| 20260503213803 | 17 | 339 | 8.0 | 25.7 | 0.00 | 0.00 | 0.00 | 30 | 1012.2 |
| 20260503213304 | 17 | 349 | 11.3 | 20.9 | 0.00 | 0.00 | 0.00 | 29 | 1012.1 |
| 20260503212804 | 17 | 307 | 9.7 | 19.3 | 0.00 | 0.00 | 0.00 | 30 | 1012.2 |
| 20260503212305 | 17 | 1 | 8.0 | 12.9 | 0.00 | 0.00 | 0.00 | 31 | 1012.0 |
| 20260503211304 | 17 | 321 | 9.7 | 24.1 | 0.00 | 0.00 | 0.00 | 32 | 1012.2 |
| 20260503210803 | 17 | 296 | 8.0 | 20.9 | 0.00 | 0.00 | 0.00 | 31 | 1012.1 |
| 20260503205803 | 17 | 281 | 9.7 | 19.3 | 0.00 | 0.00 | 0.00 | 30 | 1012.1 |
| 20260503204803 | 17 | 310 | 12.9 | 29.0 | 0.00 | 0.00 | 0.00 | 31 | 1012.2 |
| 20260503204303 | 17 | 288 | 9.7 | 24.1 | 0.00 | 0.00 | 0.00 | 31 | 1012.2 |
| 20260503203803 | 17 | 296 | 11.3 | 22.5 | 0.00 | 0.00 | 0.00 | 31 | 1012.3 |
| 20260503203303 | 17 | 205 | 6.4 | 19.3 | 0.00 | 0.00 | 0.00 | 30 | 1012.3 |
| 20260503202804 | 17 | 295 | 16.1 | 32.2 | 0.00 | 0.00 | 0.00 | 31 | 1012.5 |
| 20260503202304 | 17 | 293 | 8.0 | 16.1 | 0.00 | 0.00 | 0.00 | 32 | 1012.4 |
| 20260503201303 | 17 | 302 | 8.0 | 19.3 | 0.00 | 0.00 | 0.00 | 32 | 1012.5 |
| 20260503200803 | 17 | 329 | 9.7 | 20.9 | 0.00 | 0.00 | 0.00 | 33 | 1012.6 |
| 20260503195803 | 17 | 230 | 3.2 | 14.5 | 0.00 | 0.00 | 0.00 | 33 | 1012.7 |
| 20260503195304 | 17 | 309 | 19.3 | 37.0 | 0.00 | 0.00 | 0.00 | 33 | 1012.9 |
| 20260503194303 | 16 | 321 | 16.1 | 25.7 | 0.00 | 0.00 | 0.00 | 34 | 1012.9 |
| 20260503193803 | 16 | 282 | 11.3 | 24.1 | 0.00 | 0.00 | 0.00 | 34 | 1013.0 |
| 20260503193303 | 16 | 335 | 11.3 | 24.1 | 0.00 | 0.00 | 0.00 | 37 | 1013.0 |
| 20260503192804 | 15 | 329 | 12.9 | 24.1 | 0.00 | 0.00 | 0.00 | 35 | 1013.1 |
| 20260503192305 | 16 | 301 | 14.5 | 27.4 | 0.00 | 0.00 | 0.00 | 33 | 1013.2 |
| 20260503191803 | 16 | 305 | 8.0 | 27.4 | 0.00 | 0.00 | 0.00 | 33 | 1013.3 |
| 20260503191304 | 16 | 279 | 12.9 | 22.5 | 0.00 | 0.00 | 0.00 | 32 | 1013.4 |
| 20260503190803 | 16 | 318 | 9.7 | 24.1 | 0.00 | 0.00 | 0.00 | 36 | 1013.2 |
| 20260503190303 | 16 | 326 | 14.5 | 27.4 | 0.00 | 0.00 | 0.00 | 36 | 1013.3 |
| 20260503185803 | 16 | 275 | 11.3 | 25.7 | 0.00 | 0.00 | 0.00 | 35 | 1013.3 |
| 20260503185304 | 16 | 319 | 14.5 | 25.7 | 0.00 | 0.00 | 0.00 | 34 | 1013.4 |
| 20260503184303 | 16 | 350 | 19.3 | 32.2 | 0.00 | 0.00 | 0.00 | 35 | 1013.5 |
| 20260503183803 | 16 | 312 | 12.9 | 19.3 | 0.00 | 0.00 | 0.00 | 36 | 1013.6 |
| 20260503183303 | 16 | 280 | 12.9 | 22.5 | 0.00 | 0.00 | 0.00 | 35 | 1013.7 |
| 20260503182803 | 16 | 290 | 11.3 | 32.2 | 0.00 | 0.00 | 0.00 | 35 | 1013.6 |
| 20260503181803 | 16 | 284 | 11.3 | 25.7 | 0.00 | 0.00 | 0.00 | 38 | 1013.7 |
| 20260503181303 | 15 | 291 | 16.1 | 32.2 | 0.00 | 0.00 | 0.00 | 36 | 1013.9 |
| 20260503180804 | 15 | 296 | 22.5 | 37.0 | 0.00 | 0.00 | 0.00 | 37 | 1013.9 |
| 20260503180303 | 15 | 346 | 14.5 | 25.7 | 0.00 | 0.00 | 0.00 | 37 | 1013.9 |
| 20260503175804 | 15 | 327 | 9.7 | 25.7 | 0.00 | 0.00 | 0.00 | 39 | 1013.9 |
| 20260503174804 | 15 | 325 | 14.5 | 27.4 | 0.00 | 0.00 | 0.00 | 39 | 1014.1 |
| 20260503174304 | 15 | 332 | 12.9 | 24.1 | 0.00 | 0.00 | 0.00 | 38 | 1014.0 |
| 20260503173804 | 15 | 340 | 14.5 | 32.2 | 0.00 | 0.00 | 0.00 | 38 | 1014.2 |
| 20260503173304 | 15 | 328 | 16.1 | 32.2 | 0.00 | 0.00 | 0.00 | 38 | 1014.1 |
| 20260503171804 | 14 | 310 | 11.3 | 20.9 | 0.00 | 0.00 | 0.00 | 38 | 1014.2 |
| 20260503171304 | 13 | 333 | 11.3 | 38.6 | 0.00 | 0.00 | 0.00 | 39 | 1014.3 |
| 20260503170804 | 14 | 343 | 20.9 | 35.4 | 0.00 | 0.00 | 0.00 | 36 | 1014.3 |
| 20260503170303 | 15 | 5 | 19.3 | 33.8 | 0.00 | 0.00 | 0.00 | 37 | 1014.1 |
| 20260503150804 | 12 | 316 | 14.5 | 29.0 | 0.00 | 0.00 | 0.00 | 39 | 1014.9 |
| 20260503150303 | 12 | 358 | 19.3 | 33.8 | 0.00 | 0.00 | 0.00 | 40 | 1014.9 |
| 20260503140303 | 11 | 352 | 20.9 | 33.8 | 0.00 | 0.00 | 0.00 | 44 | 1015.2 |
| 20260503131304 | 10 | 352 | 11.3 | 20.9 | 0.00 | 0.00 | 0.00 | 51 | 1015.2 |
| 20260503130803 | 10 | 313 | 14.5 | 32.2 | 0.00 | 0.00 | 0.00 | 51 | 1015.3 |
| 20260503130303 | 10 | 356 | 9.7 | 33.8 | 0.00 | 0.00 | 0.00 | 52 | 1015.3 |
| 20260503110804 | 5 | 304 | 12.9 | 22.5 | 0.00 | 0.00 | 0.00 | 71 | 1014.3 |
| 20260503110304 | 5 | 311 | 11.3 | 19.3 | 0.00 | 0.00 | 0.00 | 71 | 1014.2 |
| 20260503090304 | 5 | 299 | 12.9 | 20.9 | 0.00 | 0.00 | 0.00 | 75 | 1012.7 |
| 20260503081303 | 5 | 309 | 8.0 | 14.5 | 0.00 | 0.00 | 0.00 | 74 | 1012.4 |
| 20260503080803 | 5 | 300 | 9.7 | 20.9 | 0.00 | 0.00 | 0.00 | 74 | 1012.3 |
| 20260503080304 | 5 | 302 | 11.3 | 19.3 | 0.00 | 0.00 | 0.00 | 74 | 1012.2 |
| 20260503072804 | 5 | 299 | 12.9 | 19.3 | 0.00 | 0.00 | 0.00 | 73 | 1011.8 |
| 20260503072305 | 5 | 317 | 9.7 | 19.3 | 0.00 | 0.00 | 0.00 | 73 | 1011.8 |
| 20260503071804 | 5 | 296 | 14.5 | 19.3 | 0.00 | 0.00 | 0.00 | 73 | 1011.8 |
| 20260503070804 | 5 | 300 | 9.7 | 19.3 | 0.00 | 0.00 | 0.00 | 72 | 1011.8 |